Regional Weather Roundup
Issued by NWS

Home | Current Version | Previous Version | Text Only | Print | Product List | Glossary Off
Versions: 1 2 3 4 5 6 7 8 9 10 11 12 13 14 15 16 17 18 19 20 21 22 23 24 25 26 27 28 29 30 31 32 33 34 35 36 37 38 39 40 41 42 43 44 45 46 47 48 49 50

000
ASUS45 KCYS 300010
RWRWY

WYOMING REGIONAL WEATHER ROUNDUP
NATIONAL WEATHER SERVICE CHEYENNE WY
600 PM MDT THU SEP 29 2016

NOTE:  "FAIR" INDICATES FEW OR NO CLOUDS BELOW 12,000 FEET
WITH NO SIGNIFICANT WEATHER AND/OR OBSTRUCTIONS TO VISIBILITY.

WYZ001-300100-
YELLOWSTONE NATIONAL PARK

CITY           SKY/WX    TMP DP  RH WIND       PRES   REMARKS
LK YELLOWSTONE   N/A     51  43  74 VRB7      30.38R
6HR MIN TEMP:  51; 6HR MAX TEMP:  60; 6HR PCP:  0.01;

W YELLOWSTONE  NOT AVBL

$$
WYZ002>013-054>058-071-098>099-300100-
NORTHERN WYOMING

CITY           SKY/WX    TMP DP  RH WIND       PRES   REMARKS
JACKSON        CLOUDY    55  48  76 E6        30.34R
CODY           FAIR      73  41  31 CALM      30.14S
GREYBULL       FAIR      76  47  35 SE15      30.08F
6HR MIN TEMP:  74; 6HR MAX TEMP:  81;

WORLAND        FAIR      76  48  37 S15       30.09F
6HR MIN TEMP:  75; 6HR MAX TEMP:  80;

SHERIDAN       FAIR      72  53  51 CALM      30.07F
6HR MIN TEMP:  68; 6HR MAX TEMP:  75;

BUFFALO        FAIR      72  44  36 S12       30.16S
6HR MIN TEMP:  72; 6HR MAX TEMP:  83;

GILLETTE       FAIR      73  47  39 S13       30.16R
6HR MIN TEMP:  71; 6HR MAX TEMP:  82;

HULETT         FAIR      75  43  31 S5        30.17S
NEWCASTLE      FAIR      73  41  31 SE15      30.20S

$$
WYZ014>020-022>026-101>103-300100-
CENTRAL WYOMING

CITY           SKY/WX    TMP DP  RH WIND       PRES   REMARKS
BIG PINEY      LGT RAIN  65  40  39 W7        30.32R
6HR MIN TEMP:  63; 6HR MAX TEMP:  71;

PINEDALE       CLOUDY    63  41  45 NW10      30.33R
DUBOIS         RAIN      50  46  87 N7        30.35R
LANDER         FAIR      68  48  48 S24G31    30.17S
6HR MIN TEMP:  64; 6HR MAX TEMP:  76;

RIVERTON       FAIR      69  48  47 S21G26    30.20S
6HR MIN TEMP:  65; 6HR MAX TEMP:  73;

CASPER         CLOUDY    64  47  53 SW9       30.27F
6HR MIN TEMP:  64; 6HR MAX TEMP:  78;

DOUGLAS        FAIR      72  44  36 NW16      30.24S
6HR MIN TEMP:  72; 6HR MAX TEMP:  81;


$$
WYZ021-027>030-104>119-300100-
SOUTHERN WYOMING

CITY           SKY/WX    TMP DP  RH WIND       PRES   REMARKS
EVANSTON       FAIR      65  42  43 W10       30.33R
6HR MIN TEMP:  63; 6HR MAX TEMP:  70;

FORT BRIDGER   MOCLDY    67  38  34 SW12G20   30.35S
ROCK SPRINGS   FAIR      62  45  53 S15G21    30.32S
6HR MIN TEMP:  57; 6HR MAX TEMP:  67;

DIXON          MOCLDY    61  47  61 S7        30.41S
RAWLINS        CLOUDY    57  48  72 S12       30.38R
6HR MIN TEMP:  56; 6HR MAX TEMP:  67; 6HR PCP:  0.02;

SARATOGA       LGT RAIN  57  46  67 SW10      30.41R
LARAMIE        FAIR      63  42  46 N13G23    30.37R
6HR MIN TEMP:  63; 6HR MAX TEMP:  75;

CHEYENNE       FAIR      72  36  26 SE9       30.29F
6HR MIN TEMP:  72; 6HR MAX TEMP:  79;

TORRINGTON     FAIR      78  39  24 SE15      30.17F
6HR MIN TEMP:  73; 6HR MAX TEMP:  85;

PINE BLUFFS    FAIR      75  36  23 SE12G18   30.25F

$$



USA.gov is the U.S. government's official web portal to all federal, state and local government web resources and services.